Torna al catalogo

IRIDIUM 131

AttivoComunicazioniPO
NORAD 43079·PAYLOAD·🇺🇸 United States

Lanciato Dec 23, 2017 da Vandenberg Space Force Base

Loading…

Prossimi Passaggi (prossime 24 ore)

TLE

AggiornatoSource: CelesTrak SupGP

Epoca: Sep 14, 2026, 20:41 UTC

1 43079C 17083K   26257.86215278  .00001671  00000+0  59738-3 0  2579
2 43079  86.3919 284.6924 0002353  94.5284   8.7546 14.34214788    14

Traccia IRIDIUM 131 in tempo reale con AllMySat

Download on the App Store